Regional Weather Roundup
Issued by NWS Newport/Morehead, NC

Current Version | Previous Version | Graphics & Text | Print | Product List | Glossary On
Versions: 1 2 3 4 5 6 7 8 9 10 11 12 13 14 15 16 17 18 19 20 21 22 23 24 25 26 27 28 29 30 31 32 33 34 35 36 37 38 39 40 41 42 43 44 45 46 47 48 49 50
000
ASUS42 KMHX 011212
RWRMHX
WEATHER ROUNDUP FOR EASTERN NORTH CAROLINA
NATIONAL WEATHER SERVICE NEWPORT/MOREHEAD CITY NC
800 AM EDT WED APR 01 2015

NOTE: "FAIR" INDICATES FEW OR NO CLOUDS BELOW 12,000 FEET
WITH NO SIGNIFICANT WEATHER AND/OR OBSTRUCTIONS TO VISIBILITY

NCZ015>017-031-032-045>047-102-103-011300-
NORTH COAST

CITY           SKY/WX    TMP DP  RH WIND       PRES   REMARKS
EDENTON        SUNNY     44  37  76 NE7       30.06R
ELIZABETH CITY SUNNY     43  33  68 N14       30.06R
KITTY HAWK     SUNNY     42  36  78 N10G18    30.02R
MANTEO         SUNNY     43  36  78 N18       30.03R

$$

NCZ045>047-081-094-103-104-011300-
CENTRAL COAST

CITY           SKY/WX    TMP DP  RH WIND       PRES   REMARKS
FRISCO         SUNNY     44  36  73 N18G33    29.99R
SWANQUARTER      N/A     46 N/A N/A N12G25    29.97R

$$

NCZ095-097-098-100-101-011300-
SOUTHERN COAST

CITY           SKY/WX    TMP DP  RH WIND       PRES   REMARKS
BEAUFORT       SUNNY     51  43  74 NE16      29.99R
CEDAR ISLAND     N/A     50 N/A N/A N24G30    30.03R
JACKSONVILLE   MOSUNNY   54  41  61 N9        29.99R
PINEY ISLAND   SUNNY    N/A N/A N/A N17G26    30.00R
WILMINGTON     PTSUNNY   56  49  77 NE10      29.97R


$$

NCZ011>013-027>030-043-044-078>080-089-090>093-098-011300-
COASTAL PLAIN

CITY           SKY/WX    TMP DP  RH WIND       PRES   REMARKS
AHOSKIE        SUNNY     43  32  63 N9        30.09R
CLINTON        PTSUNNY   54  43  68 NE7       30.02R
ELIZABETHTOWN  PTSUNNY   55  43  64 N3        29.99R
GOLDSBORO      SUNNY     52  41  66 N10       30.01R
GREENVILLE     SUNNY     50  39  66 NE10      30.06R
HAVELOCK       SUNNY     52  40  63 NE20      30.01R
KENANSVILLE    MOSUNNY   53  42  66 NE5       30.02R
KINSTON        NOT AVBL
NEW BERN       SUNNY     51  39  63 NE18      30.02R
RICHLANDS      FAIR      52  39  62 N10       30.01R
ROCKY MOUNT    SUNNY     49  37  63 N12       30.05R
WASHINGTON     SUNNY     47  38  72 NE8       30.04R
WHITEVILLE     PTSUNNY   57  45  65 NE7       29.97R

$$

AMZ130-135-150-152-154-156-158-170-250-252-270-ANZ085-086-088-633-658-670-011300-
MARINE OBSERVATIONS

STATION/POSITION TIME  TEMP    WIND        PRES    WAVE   SWELL
                       AIR SEA DIR/SP/G            HT/PER HT/PER
                 (UTC) (F)     (DEG/KT/KT) (MB)    (FT/S) (FT/S)
CHESAPEAKE LIGHT 1100   41      10/ 21/ 24 1016.6
64 E VA BEACH    1150   44 49  360/ 23/ 27 1015.3    7/ 6
DUCK             1100   42 42   10/ 18/ 20 1015.0
2 E DUCK         1111      42                N/A     4/ 5
10 NE DUCK       NOT AVBL
OREGON INLET     1100   42 54  360/ 17/ 26 1015.2
HATTERAS CG      1100   48 58   20/ 27/ 32 1014.5
CAPE LOOKOUT     1200   53      20/ 17/ 22 1015.2
BEAUFORT LAB     1100   53 54   30/ 11/ 17 1012.9
27 SE WRIGHTSVLE 1100   59 64   20/ 10/ 14 1014.5
5 SE WRIGHTSVLE  1100   58 56   30/  8/ 10 1012.8
225 S CAPE HAT   1150   65 69  220/ 16/ 21 1015.0    7/ 7   3/12
41 SE CHARLESTON 1150   67 68  270/ 19/ 25 1014.3    4/ 6   2/11

$$



USA.gov is the U.S. government's official web portal to all federal, state and local government web resources and services.